Location: Friedberg
(48.6606°N, 14.1652°E)
Time: 04:49:37
(UTC+00:00)

Daily predictions for brighter satellites

Satellite Brightness Start Highest point End
(mag) Time Altitude Azimuth Time Altitude Azimuth Time Altitude Azimuth
CENTAUR R/B 4.1 01:48:26 26° ESE 01:48:39 26° ESE 01:54:02 10° ENE
USA 238 DEB 3.9 02:19:35 59° SE 02:19:37 59° ESE 02:26:22 10° NE
USA 238 3.9 02:19:40 59° SE 02:19:43 59° ESE 02:26:28 10° NE
NOSS 3-2 (A) 3.7 02:24:29 62° E 02:24:29 62° E 02:30:21 10° NE
CZ-2C R/B 4.0 02:21:57 10° NNE 02:26:26 31° E 02:27:56 26° SE
Lacrosse 4 Rocket 3.7 02:31:40 21° E 02:31:40 21° E 02:34:15 10° ENE
IDEFIX/ARIANE 42P 3.9 02:33:03 10° N 02:35:46 31° N 02:35:46 31° N
USA 234 3.5 02:34:32 10° NE 02:40:53 55° NNW 02:41:14 54° NNW
Cosmos 494 Rocket 4.3 02:42:46 62° ENE 02:42:46 62° ENE 02:47:20 10° NNE
Cosmos 2279 Rocket 4.0 02:43:34 10° N 02:49:48 79° E 02:56:00 10° SSE
NOSS 3-3 (A) 4.4 02:49:53 63° W 02:50:45 67° SW 02:59:02 10° SSE
NOSS 3-3 (C) 4.4 02:50:05 64° W 02:50:51 67° SW 02:59:02 10° SSE
Cosmos 1656 3.8 02:49:54 51° N 02:51:22 74° ENE 02:57:03 10° SE
ADEOS Rocket 2.8 02:48:55 10° SSE 02:54:23 78° ENE 03:00:01 10° NNW
Cosmos 2344 3.4 02:56:53 54° SW 02:58:51 85° NW 03:07:05 10° NE
Lacrosse 5 rocket 3.4 03:00:14 18° SE 03:00:36 18° SE 03:03:10 10° E
COSMOS 2406 4.1 02:59:32 17° S 03:03:36 45° ESE 03:09:00 10° NE
Cosmos 1697 Rocket 3.2 03:03:55 14° NNW 03:08:45 58° ENE 03:14:20 10° SE
Cosmos 1536 Rocket 3.6 03:11:55 69° SSE 03:12:20 77° E 03:16:51 10° NNE
NOSS 3-2 (C) 3.3 03:21:46 46° SW 03:23:42 86° NW 03:30:23 10° NE
MSX 4.1 03:21:18 10° N 03:26:44 45° WNW 03:26:51 45° WNW
CBERS 1 LM4 rocket 4.4 03:23:09 10° NNE 03:28:09 78° ESE 03:32:57 10° SSW
CZ-4B R/B 2.0 03:24:59 10° SSE 03:28:24 59° ENE 03:30:17 24° N
Cosmos 44 Rocket 3.4 03:29:14 56° W 03:29:52 61° WSW 03:34:59 10° SSE
Cosmos 1980 Rocket 3.1 03:25:04 10° NNW 03:30:31 48° NE 03:35:54 10° SE
ADEOS II 4.3 03:29:14 10° NNW 03:29:26 11° NNW 03:29:26 11° NNW
PSLV R/B 3.5 03:31:39 10° N 03:35:53 62° WNW 03:36:14 59° W
ARIANE 5 R/B 4.2 03:34:21 10° N 03:36:09 17° NNW 03:36:09 17° NNW
CENTAUR R/B 2.5 03:35:39 35° SW 03:38:30 75° NW 03:45:47 10° NE
Cosmos 2360 4.3 03:35:29 10° NNW 03:41:13 79° ENE 03:46:54 10° SSE
Intercosmos 24 4.0 03:37:24 10° N 03:41:31 68° ENE 03:45:02 10° SSE
ERS-2 2.2 03:44:16 10° S 03:47:31 54° SW 03:47:31 54° SW
Cosmos 1461 4.2 03:45:05 10° S 03:49:23 44° ESE 03:53:51 10° NE
KORONAS-FOTON 4.0 03:51:42 48° W 03:52:00 49° WNW 03:55:49 10° N
SAR-Lupe-4 3.5 03:50:35 10° SSE 03:54:10 85° ENE 03:57:46 10° NNW
Cosmos 967 Rocket 4.4 03:49:43 12° NW 03:55:40 85° SW 04:01:56 10° SSE
Cosmos 2278 3.9 03:51:11 10° NNW 03:56:53 75° ENE 04:02:31 10° SSE
Cosmos 1092 Rocket 4.3 03:51:01 10° S 03:57:07 69° E 04:03:20 10° NNE
ALOS 2.2 03:52:45 10° NNE 03:57:27 90° E 04:02:08 10° SSW
SL-14 R/B 3.5 03:53:39 10° S 03:57:37 73° E 04:01:39 10° NNE
CZ-3 R/B 4.3 03:43:26 13° WSW 04:00:18 28° SSW 04:07:39 10° SE
Cosmos 2322 Rocket 4.2 03:55:58 10° NNW 04:00:41 26° NE 04:05:22 10° E
Aureole 3 4.4 03:57:05 10° N 04:00:55 53° E 04:05:43 10° SSE
Nadezhda 4 Rocket 3.9 03:57:28 10° SSW 04:03:34 71° WNW 04:09:43 10° N
CZ-2C R/B 2.9 04:00:04 10° N 04:04:42 38° WNW 04:07:18 22° WSW
Cosmos 1300 2.6 04:02:10 10° N 04:06:01 89° W 04:09:50 10° S
Cosmos 1726 Rocket 3.6 04:02:06 10° N 04:06:34 88° ENE 04:11:03 10° S
Abrixas rocket 1.8 04:06:51 53° WSW 04:07:18 65° SSW 04:10:07 10° ESE
ADEOS 3.5 04:02:10 10° NNE 04:07:25 74° WNW 04:12:37 10° SSW
PSLV R/B 4.2 04:04:30 10° SSE 04:08:40 73° ENE 04:12:54 10° N
ISS -2.9 04:07:09 21° SSW 04:09:03 45° SSE 04:12:18 10° ENE
Lacrosse 4 Rocket 1.6 04:08:01 30° WSW 04:09:32 45° NW 04:13:27 10° NNE
Cosmos 1833 Rocket 2.6 04:04:58 10° SSW 04:10:38 77° WNW 04:16:19 10° NNE
USA 238 DEB 4.1 04:07:03 23° W 04:10:51 44° NNW 04:17:31 10° NE
USA 238 4.1 04:07:08 23° W 04:10:56 44° NW 04:17:37 10° NE
Cosmos 1689 Rocket 2.0 04:08:35 10° SSE 04:11:31 83° ENE 04:14:27 10° NNW
SAR-Lupe-1 4.0 04:08:16 10° S 04:11:48 64° WSW 04:15:23 10° NNW
Meteor 2-13 Rocket 4.4 04:06:43 10° S 04:12:52 84° W 04:19:04 10° N
USA 290 3.0 04:10:16 10° S 04:13:24 52° ESE 04:16:35 10° NNE
Cosmos 1025 Rocket 4.4 04:14:23 21° WNW 04:14:23 21° WNW 04:17:16 10° NNW
NOSS 3-2 (A) 4.2 04:11:54 22° W 04:15:12 38° NNW 04:21:35 10° NE
Meteor 1-24 Rocket 3.8 04:10:11 10° S 04:15:48 87° E 04:21:41 10° NNE
Cosmos 1484 Rocket 2.8 04:12:19 10° N 04:16:08 53° WNW 04:19:51 10° SSW
Cosmos 1674 3.7 04:16:30 26° WNW 04:16:33 26° WNW 04:19:48 10° NNW
IDEFIX/ARIANE 42P 4.4 04:14:33 10° NNW 04:16:33 13° NW 04:16:33 13° NW
Cosmos 2228 3.1 04:15:22 10° NNW 04:19:37 51° W 04:23:51 10° S
Cosmos 2369 3.8 04:14:22 10° NW 04:19:52 52° WSW 04:25:19 10° S
Meteor 2-10 Rocket 4.3 04:16:02 10° N 04:20:55 51° ENE 04:25:51 10° SSE
Cosmos 1606 Rocket 3.7 04:17:12 10° NNW 04:21:34 53° W 04:25:55 10° S
CZ-4B R/B 3.1 04:19:05 10° NNE 04:23:04 76° ESE 04:27:15 10° S
USA 234 4.0 04:17:11 10° ENE 04:23:16 43° N 04:28:35 14° WNW
ATLAS 3B R/B 2.7 04:18:01 10° SSW 04:24:34 81° SE 04:31:17 10° NE
Cosmos 1626 2.4 04:22:05 10° SSW 04:25:36 42° WNW 04:29:10 10° N
H-2A R/B 4.4 04:22:32 10° NNE 04:26:06 37° E 04:29:41 10° SSE
METEOR-M 4.1 04:22:12 10° N 04:27:30 65° WNW 04:32:46 10° SSW
Cosmos 2082 Rocket 2.2 04:23:31 10° SSW 04:29:08 89° ESE 04:34:48 10° NNE
COSMO-SKYMED 1 2.5 04:25:26 10° S 04:29:43 62° WSW 04:34:03 10° NNW
SL-16 R/B 3.2 04:30:17 10° NNW 04:35:48 48° NE 04:41:16 10° SE
Meteor 2-5 Rocket 3.9 04:33:44 10° SSW 04:39:15 51° WNW 04:44:57 10° N
Lacrosse 5 rocket 1.0 04:35:54 12° WSW 04:39:16 75° NNW 04:43:07 10° NE
Meteor 1-31 Rocket 3.2 04:36:24 10° N 04:40:06 40° WNW 04:43:47 10° SW
ADEOS Rocket 4.1 04:37:22 10° SW 04:40:43 16° W 04:44:07 10° NW
ATLAS CENTAUR R/B 4.5 04:39:26 10° SE 04:41:32 14° ESE 04:43:37 10° E
CREW DRAGON DEMO-1 DEB 2.8 04:42:58 15° WNW 04:45:20 73° NNE 04:48:21 10° ESE
Meteor PRIRODA 3.5 04:41:57 10° N 04:45:35 67° WNW 04:49:12 10° SSW
Meteor 2-8 Rocket 4.4 04:39:54 10° NNW 04:46:05 76° W 04:52:13 10° S
Cosmos 1553 Rocket 4.0 04:40:39 10° N 04:46:50 88° E 04:52:55 10° S
COSMOS 2406 3.8 04:42:51 10° WSW 04:48:03 36° NW 04:53:17 10° NNE
Okean 1-7 Rocket 3.6 04:43:30 10° SSW 04:48:03 76° W 04:52:35 10° N
Cosmos 1428 Rocket 4.5 04:43:43 10° SSW 04:49:56 70° W 04:56:08 10° N
deb Chang Zheng 4 4.3 04:47:07 10° N 04:50:52 31° WNW 04:54:37 10° SW
Cosmos 2058 Rocket 3.3 04:47:05 10° NNW 04:51:28 51° W 04:55:48 10° S
PSLV R/B 4.3 04:48:03 10° NNE 04:52:11 72° ESE 04:56:17 10° S
Cosmos 1697 Rocket 3.6 04:47:45 10° NW 04:52:21 26° WSW 04:56:56 10° SSW
Spot 2 4.4 04:50:28 10° NNE 04:54:56 81° ESE 04:59:41 10° SSW
Cosmos 2292 Rocket 4.4 04:52:19 10° SSE 04:55:15 42° E 04:58:45 10° NNE
Cosmos 1455 2.6 04:51:34 10° N 04:55:27 69° E 04:59:17 10° SSE
CZ-4B R/B 3.5 05:00:01 10° WSW 05:01:00 11° W 05:01:58 10° WNW
Cosmos 2026 Rocket 4.1 04:54:53 10° SSW 05:01:09 57° WNW 05:07:26 10° N
Cosmos 2360 Rocket 3.6 04:57:46 10° NNW 05:03:01 37° NE 05:08:13 10° ESE
FENGYUN 3A 4.5 04:59:41 10° N 05:04:20 30° WNW 05:08:58 10° WSW
Cosmos 1892 Rocket 4.1 05:00:57 10° SW 05:04:58 37° WNW 05:09:04 10° N
Cosmos 1400 Rocket 3.9 05:04:39 10° NW 05:07:53 24° W 05:11:02 10° SW
Cosmos 2084 3.6 05:05:05 10° SW 05:09:25 87° SE 05:13:52 10° NE
H-2A R/B 2.7 05:05:54 10° NNE 05:10:22 87° ESE 05:14:39 10° SSW
SMAP 4.3 05:06:22 10° NNE 05:10:54 49° E 05:15:25 10° S
